Zurück zum Katalog

STARLINK-11670

AktivKommunikationVLEO
NORAD 64237·PAYLOAD·🇺🇸 United States

Gestartet Jun 3, 2025 von Cape Canaveral Space Force Station

Loading…

Nächste Überflüge (nächste 24 Stunden)

TLE

AktuellSource: CelesTrak SupGP

Epoche: Sep 15, 2026, 02:32 UTC

1 64237C 25119E   26258.10604167  .00071689  00000+0  55680-3 0  2583
2 64237  43.0004 147.6592 0001581 270.1186  25.2859 15.70803383    19

Verfolge STARLINK-11670 in Echtzeit mit AllMySat

Download on the App Store